Regional Weather Roundup
Issued by NWS

Home | Current Version | Previous Version | Text Only | Print | Product List | Glossary Off
Versions: 1 2 3 4 5 6 7 8 9 10 11 12 13 14 15 16 17 18 19 20 21 22 23 24 25 26 27 28 29 30 31 32 33 34 35 36 37 38 39 40 41 42 43 44 45 46 47 48 49 50

000
ASUS45 KBOU 300707
RWRCO

WEATHER ROUNDUP FOR COLORADO
NATIONAL WEATHER SERVICE DENVER/BOULDER CO
1200 AM MST FRI JAN 30 2015

NOTE: "FAIR" INDICATES FEW OR NO CLOUDS BELOW 12000 FEET WITH NO
SIGNIFICANT WEATHER AND/OR OBSTRUCTIONS TO VISIBILITY.

COZ001>005-013-030-031-300800-
...NORTHWEST COLORADO...

CITY           SKY/WX    TMP DP  RH WIND       PRES   REMARKS
CRAIG          CLOUDY    28  26  92 CALM      30.31S
HAYDEN         CLOUDY    34  23  64 E9        30.30S WCI  26
MEEKER         LGT RAIN  34  28  79 NE5       30.31S WCI  30
MOUNT WERNER   NOT AVBL
STEAMBOAT SPGS CLOUDY    30  23  77 CALM      30.30F
WALDEN         CLOUDY    23  19  86 SE3       30.31S
$$

COZ006>008-011-300800-
...WEST CENTRAL VALLEYS...

CITY           SKY/WX    TMP DP  RH WIND       PRES   REMARKS
GRAND JUNCTION CLOUDY    39  32  76 CALM      30.26F
MONTROSE       CLOUDY    39  29  67 SE5       30.31S
EAGLE          CLOUDY    34  27  75 CALM      30.34R
RIFLE          CLOUDY    37  29  72 E3        30.30S
DELTA          CLOUDY    44  31  59 CALM      30.28F
NUCLA          DRIZZLE   43  32  65 CALM      30.32F
$$

COZ017>023-064>068-300800-
...SOUTHWEST COLORADO...

CITY           SKY/WX    TMP DP  RH WIND       PRES   REMARKS
DURANGO        CLOUDY    36  34  92 VRB3      30.34F
CORTEZ         CLOUDY    45  32  60 E5        30.29F
PAGOSA SPRINGS LGT SNOW  34  34 100 CALM      30.36F
TELLURIDE      CLOUDY    34  29  83 SE3       30.34F
WOLF CREEK PAS NOT AVBL
$$

COZ009-010-012-014-032>034-037-058>063-300800-
...CENTRAL COLORADO...

CITY           SKY/WX    TMP DP  RH WIND       PRES   REMARKS
ASPEN          CLOUDY    32  25  75 CALM      30.30S
BUENA VISTA    CLOUDY    30  23  74 CALM      30.38F
COPPER MTN     CLOUDY    28  14  54 S9        30.38S WCI  20
BERTHOUD PASS  MOCLDY    19  12  73 NW15      30.38F WCI   5
COTTONWOOD PAS CLOUDY    28  25  86 CALM      30.37F FOG
GUNNISON       CLOUDY    27  21  80 CALM      30.37F
KREMMLING      CLOUDY    23  19  86 CALM      30.35S
LEADVILLE      LGT SNOW  22  19  89 CALM      30.36F FOG
MONARCH PASS   CLOUDY    23  21  93 MISG      30.48F
SALIDA         CLOUDY    32  28  83 W5        30.46S WCI  27
SUNLIGHT       LGT SNOW  30  27  86 CALM        N/A
WILKERSON PASS CLOUDY    21  19  93 SW13G20   30.37F FOG     WCI   9
$$

COZ069>075-300800-
...SAN LUIS VALLEY/SANGRE DE CRISTO MOUNTAINS...

CITY           SKY/WX    TMP DP  RH WIND       PRES   REMARKS
ALAMOSA        CLOUDY    35  27  72 S10       30.36F WCI  27
LA VETA PASS   CLOUDY    23  23 100 S6        30.38F WCI  16
SAGUACHE       LGT SNOW  32  32 100 SE8       30.38F WCI  25
$$

COZ035-036-038>040-300800-
...NORTHERN COLORADO FRONT RANGE...

CITY           SKY/WX    TMP DP  RH WIND       PRES   REMARKS
DENVER INTL AP CLOUDY    38  24  57 S16       30.29F
DMNS CITY PARK   N/A     37  23  55 SW5       30.28F
AURORA         MOCLDY    38  22  53 S20G28    30.29F
FRONT RANGE AP NOT AVBL
ERIE MUNI ARPT CLOUDY    29  27  90 CALM      30.30F
BOULDER MUN AP CLOUDY    36  27  69 E5        30.30F
CENTENNIAL     CLOUDY    37  23  56 S16       30.29F
BROOMFIELD     CLOUDY    36  28  75 CALM      30.29F
FORT COLLINS   CLOUDY    30  21  69 N5        30.32F WCI  25
LONGMONT       CLOUDY    32  27  82 CALM      30.32F
$$

COZ041-046-047-076>085-087-088-300800-
...PIKES PEAK/PALMER DIVIDE AND SOUTHERN FOOTHILLS...

CITY           SKY/WX    TMP DP  RH WIND       PRES   REMARKS
COLO. SPRINGS  CLOUDY    33  23  66 SE7       30.37F WCI  27
A. F. ACADEMY  CLOUDY    33  22  62 SE9       30.35F WCI  26
ELLICOTT       CLOUDY   N/A N/A N/A S7        30.36F
FALCON         CLOUDY    31  22  71 S9        30.37F WCI  23
FORT CARSON    CLOUDY    35  23  62 SW5       30.36F WCI  31
LIMON          MOCLDY    27  21  78 S7        30.37F WCI  19
MONUMENT HILL  CLOUDY    32  21  64 S20       30.31F WCI  20
TRINIDAD       CLOUDY    35  28  75 CALM      30.38F
$$

COZ042>045-048>051-090-091-300800-
...NORTHEAST COLORADO...

CITY           SKY/WX    TMP DP  RH WIND       PRES   REMARKS
GREELEY ARPT   CLOUDY    30  21  69 E5        30.30F WCI  25
AKRON          CLOUDY    34  17  50 S13       30.36F WCI  25
BURLINGTON     MOCLDY    31  21  66 S13       30.41F WCI  21
WRAY           PTCLDY    33  22  65 CALM      30.41F
STERLING       CLOUDY    30  21  69 SW6       30.36F WCI  24
HOLYOKE        NOT AVBL
FORT MORGAN    CLOUDY    31  23  71 SE5       30.35F WCI  27
$$

COZ086-089-092>099-300800-
...SOUTHEAST COLORADO...

CITY           SKY/WX    TMP DP  RH WIND       PRES   REMARKS
PUEBLO         CLOUDY    38  24  57 E7        30.37F
LA JUNTA       CLOUDY    36  27  69 E6        30.39F
LAMAR          CLOUDY    36  22  56 VRB3      30.42F
SPRINGFIELD      N/A     34  26  72 S9        30.43F WCI  27
$$



USA.gov is the U.S. government's official web portal to all federal, state and local government web resources and services.